Location: Dover
(48.8500°N, 53.9833°W)
Time: 06:51:59
(UTC+00:00)

DNEPR-1 R/B - Pass Details

Date: 14 November 2025
Orbit: 587 x 1326 km, 64.6° (Epoch: 12 December)

Event Time Altitude Azimuth Distance (km) Brightness Sun altitude
Rises 20:45:36 0° 319° (NW) 2,860 7.3 -8.3°
Reaches altitude 10° 20:47:44 10° 319° (NW) 1,990 6.5 -8.6°
Maximum altitude 20:52:10 81° 233° (SW) 685 3.9 -9.3°
Drops below altitude 10° 20:57:16 10° 146° (SE) 2,283 6.3 -10.1°
Sets 20:59:52 0° 146° (SE) 3,320 7.1 -10.5°
